Location: Ladrillo (historical)
(32.8195°N, 117.2231°W)
Time: 11:11:56
(UTC+00:00)

Courier 1B Rocket - Visible Passes

Search period start: 01 March 2021 00:00
Search period end: 11 March 2021 00:00
Orbit: 920 x 1202 km, 28.3° (Epoch: 28 February)

Date Brightness Start Highest point End Pass type
(mag) Time Alt. Az. Time Alt. Az. Time Alt. Az.
01 Mar 5.8 02:31:03 10° W 02:38:42 61° S 02:45:17 15° ESE visible
01 Mar 6.2 04:25:01 10° W 04:31:40 39° SSW 04:31:40 39° SSW visible
02 Mar 6.0 03:23:34 10° W 03:31:00 48° SSW 03:34:31 30° SE visible
02 Mar 7.4 05:18:21 10° WSW 05:20:54 18° WSW 05:20:54 18° WSW visible
03 Mar 5.9 02:22:15 10° W 02:29:46 55° S 02:37:22 10° ESE visible
03 Mar 6.5 04:16:27 10° W 04:23:07 31° SSW 04:23:48 30° SSW visible
04 Mar 6.3 03:14:53 10° W 03:21:58 39° SSW 03:26:44 20° SE visible
04 Mar 7.5 05:10:36 10° WSW 05:13:07 15° SW 05:13:07 15° SW visible
05 Mar 6.2 02:13:31 10° W 02:20:48 47° SSW 02:28:13 10° SE visible
05 Mar 6.9 04:08:11 10° WSW 04:14:00 23° SSW 04:16:07 21° S visible
06 Mar 6.8 03:06:23 10° W 03:12:56 30° SSW 03:19:10 11° SSE visible
06 Mar 7.7 05:05:20 10° SW 05:05:33 10° SW 05:05:33 10° SW visible
07 Mar 6.6 02:04:54 10° W 02:11:48 38° SSW 02:18:54 10° SE visible
07 Mar 7.4 04:00:31 10° WSW 04:04:53 16° SSW 04:08:39 11° S visible
08 Mar 7.2 02:58:12 10° WSW 03:03:51 22° SSW 03:09:36 10° SSE visible
10 Mar 7.6 02:50:39 10° WSW 02:54:46 15° SSW 02:58:56 10° S visible
